1531443600.08,2137,19.13,73846.8,2.69,1.17,0.41,0,*75
1531443601.31,2138,19.13,73854.0,2.69,1.13,0.01,0,*4A
1531443602.53,2139,19.13,73852.5,2.67,0.87,-0.45,0,*64
1531443603.75,2140,19.13,73852.8,2.69,0.75,-0.45,0,*69
1531443604.97,2141,19.13,73854.8,2.69,0.51,-0.69,0,*60
1531443606.19,2142,19.13,73850.8,2.69,0.37,-0.73,0,*68
1531443607.4,2143,19.13,73856.5,2.69,0.29,-0.81,0,*6B
1531443608.64,2144,19.13,73854.3,2.69,0.25,-0.93,0,*63
1531443609.88,2145,19.13,73856.0,2.69,0.41,-0.85,0,*67
1531443611.1,2146,19.13,73860.5,2.69,0.29,-0.69,0,*68
1531443612.32,2147,19.13,73860.3,2.69,0.41,-0.49,0,*65
1531443613.51,2148,19.13,73858.5,2.69,0.43,-0.33,0,*65
1531443614.75,2149,19.13,73856.8,2.69,0.63,-0.23,0,*67
1531443615.99,2150,19.13,73860.8,2.69,0.67,-0.23,0,*6B
1531443617.21,2151,19.13,73858.5,2.69,0.75,-0.19,0,*60
1531443618.44,2152,19.13,73858.3,2.69,0.79,-0.19,0,*6F
1531443619.66,2153,19.13,73856.8,2.69,0.79,-0.19,0,*6E
1531443620.89,2154,19.13,73860.5,2.69,0.87,-0.19,0,*68
1531443622.1,2155,19.13,73866.0,2.71,0.91,-0.41,0,*6A
1531443623.29,2156,19.13,73860.3,2.71,0.71,-0.69,0,*6D
1531443624.48,2157,19.13,73856.8,2.71,0.55,-0.65,0,*66
1531443625.68,2158,19.13,73862.8,2.71,0.55,-0.19,0,*62
1531443626.88,2159,19.13,73854.3,2.71,0.59,-0.19,0,*6F
1531443628.07,2160,19.13,73852.8,2.71,0.55,-0.07,0,*56
1531443629.25,2161,19.13,73854.5,2.71,0.67,-0.07,0,*56
1531443630.45,2162,19.13,73850.8,2.71,0.67,-0.15,0,*66
1531443631.64,2163,19.13,73852.5,2.71,0.71,-0.07,0,*53
1531443632.83,2164,19.13,73854.0,2.71,0.71,-0.15,0,*67
1531443634.07,2165,19.13,73856.8,2.73,0.67,-0.27,0,*62
1531443635.3,2166,19.13,73858.5,2.73,0.55,-0.29,0,*6E
1531443636.49,2167,19.13,73856.0,2.71,0.55,-0.65,0,*65
1531443637.65,2168,19.13,73858.3,2.71,0.43,-0.81,0,*67
1531443638.9,2169,19.13,73858.8,2.73,0.21,-0.93,0,*63
1531443640.1,2170,19.13,73858.3,2.73,-0.03,-1.33,0,*4D
1531443641.31,2171,19.13,73856.0,2.73,-0.19,-1.51,0,*73
1531443642.53,2172,19.13,73860.8,2.73,-0.41,-1.67,0,*78
1531443643.74,2173,19.13,73860.3,2.71,-0.69,-1.87,0,*7F
1531443644.97,2174,19.13,73860.5,2.73,-0.89,-1.75,0,*79
1531443646.24,2175,19.13,73860.3,2.73,-1.05,-1.87,0,*40
1531443647.51,2176,19.13,73856.8,2.73,-1.43,-1.95,0,*42
1531443648.71,2177,19.13,73862.8,2.71,-1.63,-2.03,0,*4F
1531443649.95,2178,19.13,73858.8,2.73,-1.67,-1.95,0,*4A
1531443651.15,2179,19.13,73862.8,2.71,-1.63,-1.95,0,*4D
1531443652.36,2180,19.13,73860.5,2.73,-1.63,-2.19,0,*4E
1531443653.55,2181,19.13,73862.0,2.71,-1.63,-2.39,0,*4F
1531443654.75,2182,19.13,73858.0,2.75,-1.51,-2.59,0,*4F
1531443655.94,2183,19.13,73862.8,2.75,-1.59,-2.87,0,*45
1531443657.14,2184,19.13,73860.3,2.73,-1.79,-3.15,0,*4C
1531443658.36,2185,19.13,73860.0,2.73,-2.15,-3.39,0,*4A
1531443659.59,2186,19.13,73858.5,2.73,-1.95,-3.03,0,*4B
1531443660.83,2187,19.13,73860.8,2.73,-1.79,-2.67,0,*4B
1531443662.04,2188,19.13,73860.5,2.71,-1.55,-2.55,0,*49
1531443663.26,2189,19.13,73860.5,2.73,-1.33,-2.43,0,*4D
1531443664.53,2190,19.13,73860.8,2.73,-1.13,-2.51,0,*44
1531443665.78,2191,19.13,73858.8,2.73,-1.17,-2.75,0,*47
1531443667.0,2192,19.13,73862.3,2.73,-1.29,-2.83,0,*40
1531443668.22,2193,19.13,73856.3,2.73,-1.33,-2.83,0,*4A
1531443669.43,2194,19.13,73862.5,2.71,-1.29,-2.67,0,*4E
1531443670.65,2195,19.13,73860.8,2.73,-1.29,-2.43,0,*4B
1531443671.87,2196,19.13,73862.8,2.73,-1.17,-2.31,0,*40
1531443673.12,2197,19.13,73864.3,2.73,-1.05,-2.19,0,*48
1531443674.34,2198,19.13,73862.5,2.73,-1.21,-2.19,0,*41
1531443675.58,2199,19.13,73860.5,2.73,-1.05,-1.75,0,*4F
1531443676.79,2200,19.13,73862.0,2.71,-0.93,-1.63,0,*77
1531443678.03,2201,19.13,73862.0,2.73,-1.01,-1.67,0,*4A
1531443679.24,2202,19.13,73862.8,2.71,-1.01,-1.51,0,*4E
1531443680.49,2203,19.13,73862.8,2.73,-1.17,-1.43,0,*49
1531443681.71,2204,19.13,73862.3,2.73,-1.29,-1.21,0,*47
1531443682.95,2205,19.13,73864.0,2.73,-1.17,-0.89,0,*78
1531443684.19,2206,19.13,73862.3,2.73,-1.01,-0.53,0,*7B
1531443685.42,2207,19.13,73862.3,2.73,-0.89,-0.15,0,*49
1531443686.65,2208,19.13,73856.3,2.73,-0.57,0.29,0,*67
1531443687.88,2209,19.13,73856.3,2.73,-0.19,0.55,0,*67
1531443689.09,2210,19.13,73858.5,2.71,0.21,0.83,0,*40
1531443690.28,2211,19.13,73858.3,2.73,0.43,1.05,0,*78
1531443691.53,2212,19.13,73864.3,2.73,0.79,1.17,0,*71
1531443692.73,2213,19.13,73862.0,2.73,1.05,1.41,0,*49
1531443693.96,2214,19.13,73860.8,2.75,1.33,1.37,0,*4C
1531443695.19,2215,19.13,73862.8,2.71,1.29,1.33,0,*46
1531443696.42,2216,19.13,73858.5,2.73,1.41,1.33,0,*49
1531443697.67,2217,19.13,73856.0,2.73,1.51,1.29,0,*42
1531443698.9,2218,19.13,73858.0,2.73,1.41,1.17,0,*41
1531443700.15,2219,19.13,73854.5,2.73,1.51,1.13,0,*45
1531443701.39,2220,19.13,73858.5,2.73,1.51,0.95,0,*70
1531443702.64,2221,19.13,73862.8,2.73,1.43,0.71,0,*78
1531443703.87,2222,19.13,73860.3,2.75,1.55,0.59,0,*70
1531443705.1,2223,19.13,73862.5,2.75,1.37,0.13,0,*7B
1531443706.33,2224,19.13,73860.5,2.75,1.37,-0.27,0,*56
1531443707.52,2225,19.13,73862.0,2.75,1.05,-0.77,0,*53
1531443708.74,2226,19.13,73864.3,2.75,0.83,-1.01,0,*5F
1531443709.94,2227,19.13,73862.3,2.75,0.59,-1.17,0,*5E
1531443711.14,2228,19.13,73862.5,2.75,0.51,-1.25,0,*58
1531443712.33,2229,19.13,73864.3,2.75,0.37,-1.29,0,*55
1531443713.55,2230,19.13,73862.5,2.75,0.13,-1.35,0,*56
1531443714.75,2231,19.13,73862.5,2.75,0.13,-1.17,0,*57
1531443715.92,2232,19.13,73862.8,2.75,0.09,-1.25,0,*6E
1531443717.13,2233,19.13,73862.3,2.75,-0.11,-1.13,0,*7E
1531443718.32,2234,19.13,73864.3,2.79,0.13,-0.81,0,*60
1531443719.52,2235,19.13,73860.8,2.75,0.25,-0.49,0,*6C
1531443720.69,2236,19.13,73858.8,2.75,0.43,-0.11,0,*62
1531443721.88,2237,19.13,73856.3,2.75,0.47,0.09,0,*73
1531443723.1,2238,19.13,73854.0,2.75,0.51,0.21,0,*41
1531443724.3,2239,19.13,73858.8,2.75,0.63,0.33,0,*42
1531443725.52,2240,19.13,73854.5,2.79,0.79,0.41,0,*4E
1531443726.71,2241,19.13,73858.5,2.75,0.83,0.09,0,*7A
1531443727.91,2242,19.13,73854.5,2.75,0.75,-0.15,0,*60
1531443729.11,2243,19.13,73846.0,2.75,0.75,-0.49,0,*68
1531443730.32,2244,19.13,73854.5,2.75,0.75,-0.89,0,*63
1531443731.52,2245,19.13,73858.0,2.75,0.63,-1.59,0,*59
1531443732.75,2246,19.13,73862.5,2.75,0.47,-2.75,0,*51
1531443733.94,2247,19.13,73860.5,2.75,0.13,-4.37,0,*51
1531443735.13,2248,19.13,73858.5,2.75,-0.41,-6.01,0,*73
1531443736.35,2249,19.13,73860.8,2.79,-1.21,-7.35,0,*4F
1531443737.55,2250,19.13,73854.5,2.73,-2.15,-8.55,0,*40
1531443738.79,2251,19.13,73858.8,2.73,-3.19,-9.45,0,*4C
1531443740.01,2252,19.13,73850.8,2.73,-4.17,-9.75,0,*45
1531443741.22,2253,19.13,73848.3,2.71,-5.19,-10.85,0,*7E
1531443742.49,2254,19.13,73854.3,2.73,-6.19,-11.29,0,*7F
1531443743.74,2255,19.13,73854.8,2.73,-7.23,-11.67,0,*7C
1531443744.99,2256,19.13,73854.0,2.73,-7.87,-11.73,0,*74
1531443746.2,2257,19.13,73852.5,2.71,-7.19,-9.37,0,*49
1531443747.46,2258,19.13,73848.3,2.73,-6.27,-8.03,0,*4E
1531443748.67,2259,19.13,73850.8,2.73,-6.01,-8.17,0,*4E
1531443749.86,2260,19.13,73850.8,2.71,-6.39,-8.85,0,*46
1531443751.1,2261,19.13,73848.5,2.73,-7.19,-9.45,0,*4B
1531443752.34,2262,19.13,73858.0,2.73,-7.77,-9.89,0,*40
1531443753.54,2263,19.13,73852.0,2.71,-9.19,-10.89,0,*7D
1531443754.76,2264,19.13,73852.0,2.71,-10.57,-12.11,0,*4B
1531443755.96,2265,19.13,73858.8,2.71,-12.29,-13.11,0,*40
1531443757.16,2266,19.13,73852.5,2.71,-14.29,-14.29,0,*49
1531443758.37,2267,19.13,73852.5,2.71,-15.39,-13.93,0,*4E
1531443759.62,2268,19.13,73856.3,2.69,-17.25,-14.33,0,*4A
1531443760.89,2269,19.13,73856.0,2.69,-18.55,-13.97,0,*4A
1531443762.14,2270,19.13,73860.5,2.69,-19.23,-13.73,0,*48
1531443763.4,2271,19.13,73856.5,2.69,-19.61,-13.19,0,*43
1531443764.63,2272,19.13,73858.5,2.69,-19.71,-12.47,0,*4B
1531443765.89,2273,19.13,73858.3,2.69,-19.85,-11.59,0,*4D
1531443767.12,2274,19.13,73856.5,2.67,-19.71,-10.53,0,*44
1531443768.38,2275,19.13,73856.8,2.67,-19.61,-9.57,0,*78
1531443769.59,2276,19.13,73856.8,2.67,-19.17,-8.55,0,*79
1531443770.84,2277,19.13,73858.8,2.67,-18.69,-7.39,0,*75
1531443772.07,2278,19.13,73856.5,2.65,-17.79,-6.27,0,*78
1531443773.29,2279,19.13,73846.8,2.65,-16.37,-5.27,0,*71
1531443774.52,2280,19.13,73844.8,2.63,-14.23,-4.21,0,*71
1531443775.72,2281,19.13,73842.5,2.63,-12.43,-3.31,0,*76
1531443776.94,2282,19.13,73840.8,2.65,-10.35,-2.47,0,*70
1531443778.16,2283,19.13,73838.5,2.65,-8.63,-2.11,0,*48
1531443779.37,2284,19.13,73838.0,2.65,-9.27,-2.51,0,*4A
1531443780.58,2285,19.13,73836.5,2.63,-10.15,-2.79,0,*7E
1531443781.79,2286,19.13,73832.5,2.63,-10.01,-3.03,0,*74
1531443783.02,2287,19.13,73842.5,2.65,-9.57,-2.75,0,*48
1531443784.25,2288,19.13,73840.5,2.63,-10.31,-2.75,0,*79
1531443785.49,2289,19.13,73842.0,2.63,-9.31,-1.87,0,*4E
1531443786.69,2290,19.13,73844.8,2.65,-9.57,-1.59,0,*43
1531443787.9,2291,19.13,73850.8,2.63,-10.15,-1.29,0,*7D
1531443789.14,2292,19.13,73848.8,2.63,-9.57,-0.89,0,*7B
1531443790.33,2293,19.13,73850.3,2.65,-8.93,-0.49,0,*79
1531443791.52,2294,19.13,73848.5,2.65,-7.77,0.01,0,*6A
1531443792.76,2295,19.13,73848.3,2.63,-7.05,0.29,0,*52
1531443793.98,2296,19.13,73846.3,2.63,-6.39,0.37,0,*50
1531443795.21,2297,19.13,73842.0,2.65,-5.85,0.51,0,*53
1531443796.46,2298,19.13,73842.8,2.63,-5.19,0.71,0,*5D
1531443797.7,2299,19.13,73818.5,2.63,-4.73,0.71,0,*51
1531443798.9,2300,19.13,73814.8,2.65,-3.87,0.87,0,*53
1531443800.12,2301,19.13,73814.3,2.63,-2.87,0.83,0,*51
1531443801.33,2302,19.13,73814.5,2.63,-2.31,0.95,0,*58
1531443802.55,2303,19.13,73806.0,2.63,-1.79,0.79,0,*54
1531443803.77,2304,19.13,73802.0,2.65,-1.35,0.83,0,*58
1531443804.99,2305,19.13,73808.8,2.63,-0.53,0.79,0,*6B
1531443806.18,2306,19.13,73810.0,2.65,-0.11,0.75,0,*64
1531443807.39,2307,19.13,73808.5,2.65,0.41,0.71,0,*49
1531443808.61,2308,19.13,73814.3,2.65,0.47,0.47,0,*45
1531443809.82,2309,19.13,73812.0,2.65,0.47,0.37,0,*43
1531443811.02,2310,19.13,73812.8,2.63,0.43,0.21,0,*4E
1531443812.26,2311,19.13,73810.5,2.63,0.47,0.21,0,*4B
1531443813.44,2312,19.13,73818.8,2.65,0.51,0.01,0,*7B
1531443814.65,2313,19.13,73818.8,2.65,0.37,-0.23,0,*67
1531443815.86,2314,19.13,73822.0,2.63,0.33,-0.53,0,*65
1531443817.06,2315,19.13,73826.5,2.63,0.29,-0.65,0,*6A
1531443818.28,2316,19.13,73830.3,2.65,0.21,-0.85,0,*69
1531443819.49,2317,19.13,73830.5,2.65,0.13,-0.97,0,*6A
1531443820.68,2318,19.13,73830.8,2.65,-0.03,-0.97,0,*79
1531443821.9,2319,19.13,73834.3,2.63,-0.07,-1.05,0,*40
1531443823.1,2320,19.13,73838.8,2.65,-0.15,-1.35,0,*7C
1531443824.33,2321,19.13,73844.3,2.65,-0.23,-1.39,0,*74
1531443825.51,2322,19.13,73840.5,2.65,-0.45,-1.51,0,*79
1531443826.71,2323,19.13,73844.8,2.67,-0.57,-1.55,0,*7D
1531443827.94,2324,19.13,73852.8,2.67,-0.49,-1.43,0,*72
1531443829.14,2325,19.13,73848.3,2.67,-0.73,-1.59,0,*71
1531443830.31,2326,19.13,73850.3,2.65,-0.61,-1.25,0,*78
1531443831.51,2327,19.13,73854.8,2.65,-0.33,-1.13,0,*7B
1531443832.69,2328,19.13,73856.3,2.65,-0.45,-1.25,0,*70
1531443833.91,2329,19.13,73856.3,2.67,-0.49,-1.47,0,*7B
1531443835.14,2330,19.13,73858.8,2.67,-0.33,-1.91,0,*75
1531443836.34,2331,19.13,73858.0,2.67,-0.41,-3.07,0,*7C
1531443837.61,2332,19.13,73854.3,2.67,-1.05,-4.85,0,*43
1531443838.81,2333,19.13,73852.5,2.67,-1.59,-5.51,0,*43
1531443840.05,2334,19.13,73852.0,2.67,-1.99,-6.01,0,*4E
1531443841.26,2335,19.13,73850.8,2.67,-2.87,-6.81,0,*4B
1531443842.5,2336,19.13,73850.0,2.67,-3.35,-7.27,0,*4D
1531443843.71,2337,19.13,73850.3,2.67,-3.83,-8.17,0,*4D
1531443844.91,2338,19.13,73852.3,2.67,-4.37,-8.71,0,*4A
1531443846.12,2339,19.13,73854.8,2.67,-4.61,-9.01,0,*4E
1531443847.34,2340,19.13,73852.5,2.67,-5.51,-10.49,0,*76
1531443848.57,2341,19.13,73850.3,2.67,-6.69,-11.85,0,*7E
1531443849.81,2342,19.13,73844.3,2.67,-7.83,-12.57,0,*74
1531443851.08,2343,19.13,73858.8,2.67,-7.95,-12.71,0,*76
1531443852.28,2344,19.13,73860.0,2.65,-8.71,-14.23,0,*77
1531443853.49,2345,19.13,73852.5,2.65,-10.41,-15.67,0,*4D
1531443854.72,2346,19.13,73856.5,2.65,-11.77,-16.55,0,*48
1531443855.96,2347,19.13,73856.8,2.65,-13.33,-17.03,0,*49
1531443857.21,2348,19.13,73858.0,2.63,-14.11,-17.17,0,*42
1531443858.44,2349,19.13,73854.3,2.63,-15.01,-17.73,0,*41
1531443859.66,2350,19.13,73848.3,2.65,-15.67,-18.35,0,*42
1531443860.88,2351,19.13,73844.0,2.65,-16.27,-18.65,0,*41
1531443862.1,2352,19.13,73828.8,2.65,-16.23,-18.45,0,*44
1531443863.32,2353,19.13,73824.5,2.65,-16.13,-18.17,0,*41
1531443864.55,2354,19.13,73828.3,2.63,-17.07,-18.25,0,*45
1531443865.77,2355,19.13,73830.0,2.63,-17.83,-19.13,0,*4C
1531443866.99,2356,19.13,73824.3,2.59,-18.25,-19.99,0,*47
1531443868.27,2357,19.13,73824.5,2.59,-18.31,-20.49,0,*44
1531443869.51,2358,19.13,73838.8,2.61,-18.89,-20.99,0,*4E
1531443870.74,2359,19.13,73844.3,2.61,-19.57,-20.89,0,*4C
1531443872.0,2360,19.13,73842.0,2.59,-19.99,-21.23,0,*4E
1531443873.22,2361,19.13,73834.8,2.59,-20.39,-21.47,0,*4D
1531443874.46,2362,19.13,73832.8,2.59,-20.43,-21.33,0,*40
1531443875.71,2363,19.13,73844.8,2.59,-20.53,-21.17,0,*46
1531443876.93,2364,19.13,73846.8,2.61,-20.63,-21.27,0,*4A
1531443878.17,2365,19.13,73838.3,2.59,-20.83,-21.09,0,*42
1531443879.42,2366,19.13,73846.0,2.59,-20.53,-20.93,0,*4E
1531443880.66,2367,19.13,73856.3,2.53,-20.19,-20.99,0,*41
1531443881.89,2368,19.13,73858.8,2.57,-20.43,-21.03,0,*47
1531443883.11,2369,19.13,73852.0,2.57,-20.93,-21.23,0,*49
1531443884.34,2370,19.13,73836.0,2.57,-20.93,-21.23,0,*41
1531443885.56,2371,19.13,73830.5,2.53,-20.99,-21.13,0,*4D
1531443886.78,2372,19.13,73840.3,2.53,-20.99,-21.09,0,*45
1531443887.99,2373,19.13,73842.3,2.53,-20.99,-21.09,0,*44
1531443889.21,2374,19.13,73850.8,2.53,-21.09,-20.99,0,*43
1531443890.42,2375,19.13,73842.3,2.57,-20.93,-20.89,0,*45
1531443891.65,2376,19.13,73840.5,2.53,-20.99,-20.89,0,*48
1531443892.85,2377,19.13,73848.0,2.53,-20.89,-20.73,0,*4D
1531443894.05,2378,19.13,73850.8,2.53,-20.93,-20.63,0,*48
1531443895.28,2379,19.13,73846.8,2.53,-20.93,-20.49,0,*41
1531443896.5,2380,19.13,73846.8,2.53,-20.93,-20.49,0,*47
1531443897.72,2381,19.13,73854.0,2.53,-20.93,-20.35,0,*4D
1531443898.94,2382,19.13,73848.8,2.53,-20.93,-20.19,0,*40
1531443900.16,2383,19.13,73842.5,2.53,-20.89,-20.15,0,*46
1531443901.38,2384,19.13,73846.5,2.53,-20.93,-20.15,0,*4A
1531443902.59,2385,19.13,73846.3,2.53,-20.93,-20.15,0,*4B
1531443903.82,2386,19.13,73850.3,2.53,-20.99,-20.05,0,*43
1531443905.04,2387,19.13,73852.3,2.51,-20.93,-20.09,0,*46
1531443906.28,2388,19.13,73848.3,2.51,-20.99,-19.95,0,*4C
1531443907.51,2389,19.13,73844.3,2.51,-20.93,-20.05,0,*44
1531443908.7,2390,19.13,73844.3,2.49,-20.93,-19.91,0,*42
1531443909.92,2391,19.13,73848.5,2.51,-20.93,-19.71,0,*44
1531443911.11,2392,19.13,73850.3,2.49,-20.93,-19.47,0,*4B
1531443912.36,2393,19.13,73850.0,2.49,-20.83,-19.41,0,*4D
1531443913.6,2394,19.13,73852.0,2.51,-20.79,-19.13,0,*41
1531443914.84,2395,19.13,73844.5,2.49,-20.79,-18.93,0,*40
1531443916.04,2396,19.13,73848.3,2.49,-20.69,-18.65,0,*4B
1531443917.26,2397,19.13,73844.5,2.49,-20.49,-18.41,0,*4E
1531443918.49,2398,19.13,73836.8,2.47,-20.29,-18.01,0,*4D
1531443919.71,2399,19.13,73832.3,2.47,-20.09,-17.83,0,*4B
1531443920.97,2400,19.13,73826.8,2.47,-19.81,-17.55,0,*4D
1531443922.21,2401,19.13,73832.5,2.47,-19.47,-17.21,0,*45
1531443923.44,2402,19.13,73836.3,2.47,-18.83,-16.75,0,*4F
1531443924.63,2403,19.13,73844.0,2.45,-18.45,-16.45,0,*45
1531443925.85,2404,19.13,73842.0,2.47,-18.11,-16.03,0,*43
1531443927.09,2405,19.13,73840.3,2.47,-18.11,-15.89,0,*43
1531443928.31,2406,19.13,73846.8,2.45,-17.63,-15.63,0,*4C
1531443929.55,2407,19.13,73842.8,2.47,-17.41,-15.11,0,*4A
1531443930.8,2408,19.13,73848.3,2.47,-16.79,-14.43,0,*49
1531443932.03,2409,19.13,73850.8,2.45,-16.31,-13.83,0,*4D
1531443933.25,2410,19.13,73848.3,2.45,-16.03,-13.87,0,*40
1531443934.44,2411,19.13,73846.3,2.45,-15.75,-13.47,0,*4F
1531443935.65,2412,19.13,73848.5,2.45,-14.75,-13.15,0,*4A
1531443936.87,2413,19.13,73846.8,2.47,-14.33,-13.11,0,*4F
1531443938.1,2414,19.06,73842.5,2.45,-13.83,-12.97,0,*49
1531443939.29,2415,19.06,73840.3,2.45,-13.43,-13.15,0,*4F
1531443940.54,2416,19.13,73846.5,2.45,-12.57,-12.71,0,*4B
1531443941.74,2417,19.13,73844.8,2.45,-12.89,-13.55,0,*4E
1531443942.99,2418,19.13,73842.0,2.45,-13.01,-13.97,0,*4E
1531443944.23,2419,19.13,73846.0,2.45,-12.71,-13.97,0,*49
1531443945.46,2420,19.13,73846.8,2.45,-12.29,-13.97,0,*4E
1531443946.73,2421,19.13,73850.3,2.47,-12.57,-14.97,0,*43
1531443947.95,2422,19.13,73848.8,2.45,-13.15,-15.57,0,*48
1531443949.21,2423,19.13,73842.3,2.43,-13.61,-15.95,0,*42
1531443950.46,2424,19.13,73836.0,2.45,-13.87,-16.17,0,*42
1531443951.68,2425,19.13,73840.5,2.45,-14.29,-16.23,0,*47
1531443952.9,2426,19.13,73840.5,2.45,-14.55,-16.03,0,*4D
1531443954.12,2427,19.13,73842.0,2.45,-14.89,-15.89,0,*4C
1531443955.34,2428,19.13,73848.3,2.47,-15.15,-15.71,0,*42
1531443956.6,2429,19.13,73850.8,2.43,-15.39,-15.25,0,*48
1531443957.83,2430,19.13,73848.8,2.43,-15.49,-14.89,0,*40
1531443959.08,2431,19.13,73848.5,2.43,-15.49,-14.47,0,*43
1531443960.32,2432,19.13,73850.0,2.45,-15.43,-13.87,0,*47
1531443961.51,2433,19.13,73850.8,2.45,-15.29,-13.47,0,*46
1531443962.74,2434,19.13,73852.8,2.45,-15.01,-13.01,0,*49
1531443963.97,2435,19.13,73848.0,2.43,-14.61,-12.47,0,*4A
1531443965.22,2436,19.13,73852.0,2.43,-14.29,-12.07,0,*41
1531443966.5,2437,19.13,73852.5,2.43,-13.79,-11.63,0,*43
1531443967.77,2438,19.13,73856.3,2.43,-13.33,-11.33,0,*47
1531443969.0,2439,19.13,73856.8,2.41,-13.15,-11.07,0,*47
1531443970.28,2440,19.13,73850.3,2.43,-13.01,-10.63,0,*4D
1531443971.56,2441,19.13,73850.0,2.43,-12.75,-10.41,0,*4E
1531443972.79,2442,19.13,73854.8,2.41,-12.65,-10.09,0,*42
1531443974.0,2443,19.13,73848.8,2.41,-12.61,-9.79,0,*78
1531443975.27,2444,19.13,73850.5,2.43,-12.61,-9.15,0,*77
1531443976.47,2445,19.13,73854.3,2.41,-12.21,-8.45,0,*74
1531443977.74,2446,19.13,73850.5,2.43,-12.07,-7.57,0,*7D
1531443978.99,2447,19.13,73856.3,2.43,-11.67,-6.89,0,*7B
1531443980.24,2448,19.13,73854.8,2.43,-11.23,-6.19,0,*7D
1531443981.46,2449,19.13,73848.3,2.41,-10.71,-5.51,0,*77
1531443982.72,2450,19.13,73846.3,2.43,-10.15,-5.07,0,*7C
1531443983.96,2451,19.13,73844.5,2.43,-9.45,-4.41,0,*43
1531443985.2,2452,19.13,73850.5,2.43,-8.85,-4.01,0,*49
1531443986.46,2453,19.13,73852.5,2.43,-7.95,-3.47,0,*43
1531443987.69,2454,19.13,73848.5,2.43,-7.27,-3.23,0,*4F
1531443988.9,2455,19.13,73844.5,2.43,-6.73,-3.07,0,*48
1531443990.11,2456,19.13,73846.8,2.45,-6.01,-2.71,0,*48
1531443991.36,2457,19.13,73848.8,2.43,-5.39,-2.63,0,*44
1531443992.59,2458,19.13,73850.5,2.45,-4.73,-2.47,0,*44
1531443993.78,2459,19.13,73850.3,2.45,-4.25,-2.43,0,*42
1531443995.01,2460,19.13,73846.0,2.47,-3.67,-2.35,0,*4A
1531443996.23,2461,19.13,73850.5,2.45,-3.31,-2.47,0,*4F
1531443997.44,2462,19.13,73850.0,2.45,-3.07,-2.55,0,*4A
1531443998.68,2463,19.13,73844.0,2.45,-2.71,-2.67,0,*4A
1531443999.88,2464,19.06,73838.8,2.45,-2.55,-2.91,0,*42
1531444001.06,2465,19.13,73840.3,2.45,-2.43,-3.23,0,*4C
1531444002.29,2466,19.13,73838.8,2.45,-2.47,-3.47,0,*49
1531444003.51,2467,19.06,73838.0,2.47,-2.59,-3.87,0,*49
1531444004.7,2468,19.13,73840.5,2.45,-2.91,-4.21,0,*4B
1531444005.88,2469,19.13,73846.0,2.45,-3.23,-4.45,0,*40
1531444007.11,2470,19.13,73844.3,2.47,-3.43,-4.25,0,*4A
1531444008.3,2471,19.06,73842.8,2.45,-4.25,-4.25,0,*4E
1531444009.51,2472,19.13,73848.3,2.45,-4.85,-4.21,0,*43
1531444010.74,2473,19.13,73850.8,2.47,-5.27,-3.95,0,*41
1531444011.97,2474,19.13,73848.5,2.47,-5.39,-3.47,0,*46
1531444013.2,2475,19.13,73852.8,2.47,-5.69,-3.19,0,*49
1531444014.42,2476,19.06,73848.8,2.47,-5.81,-2.91,0,*4D
1531444015.69,2477,19.13,73850.8,2.47,-5.93,-2.67,0,*46
1531444016.93,2478,19.13,73846.5,2.47,-5.69,-2.23,0,*4C
1531444018.16,2479,19.06,73844.8,2.47,-5.51,-1.95,0,*48
1531444019.4,2480,19.13,73846.8,2.47,-5.27,-1.71,0,*45
1531444020.6,2481,19.13,73854.5,2.49,-4.81,-1.51,0,*45
1531444021.83,2482,19.13,73848.3,2.47,-4.73,-1.33,0,*41
1531444023.05,2483,19.13,73848.5,2.47,-4.85,-1.17,0,*4F
1531444024.29,2484,19.13,73850.3,2.47,-4.85,-0.93,0,*75
1531444025.52,2485,19.13,73848.5,2.47,-4.73,-0.57,0,*75
1531444026.72,2486,19.13,73848.5,2.47,-4.61,-0.45,0,*76
1531444027.93,2487,19.13,73848.5,2.47,-4.33,-0.41,0,*74
1531444029.14,2488,19.13,73850.5,2.47,-4.09,-0.33,0,*77
1531444030.36,2489,19.13,73848.5,2.47,-3.79,-0.19,0,*7E
1531444031.56,2490,19.13,73852.5,2.47,-3.35,-0.07,0,*41
1531444032.76,2491,19.13,73852.8,2.47,-3.03,0.05,0,*6A
1531444034.0,2492,19.13,73848.8,2.47,-2.67,0.17,0,*59
1531444035.19,2493,19.13,73844.0,2.49,-2.39,0.25,0,*5C
1531444036.42,2494,19.06,73844.3,2.49,-2.11,0.33,0,*56
1531444037.62,2495,19.13,73848.3,2.49,-1.67,0.47,0,*56
1531444038.84,2496,19.13,73848.8,2.49,-1.35,0.71,0,*57
1531444040.05,2497,19.13,73850.5,2.49,-0.93,0.95,0,*61
1531444041.23,2498,19.13,73848.5,2.49,-0.53,1.05,0,*5A
1531444042.42,2499,19.06,73850.8,2.49,-0.15,1.17,0,*5A
1531444043.66,2500,19.13,73850.3,2.51,0.17,1.33,0,*7B
1531444044.84,2501,19.13,73850.3,2.49,0.47,1.41,0,*73
1531444046.02,2502,19.06,73844.5,2.49,0.59,1.41,0,*7F
1531444047.26,2503,19.06,73846.0,2.51,0.83,1.51,0,*71
1531444048.5,2504,19.13,73850.0,2.51,0.95,1.43,0,*72
1531444049.69,2505,19.13,73846.0,2.49,1.05,1.43,0,*42
1531444050.92,2506,19.13,73848.8,2.49,1.17,1.63,0,*40
1531444052.17,2507,19.13,73848.0,2.51,1.29,1.63,0,*45
1531444053.4,2508,19.13,73844.5,2.49,1.33,1.63,0,*48
1531444054.63,2509,19.13,73842.0,2.49,1.33,1.63,0,*49
1531444055.84,2510,19.13,73840.5,2.51,1.41,1.63,0,*4D
1531444057.06,2511,19.13,73834.0,2.51,1.41,1.63,0,*4C
1531444058.28,2512,19.06,73834.8,2.51,1.41,1.55,0,*4A
1531444059.52,2513,19.13,73830.3,2.51,1.43,1.63,0,*4C
1531444060.76,2514,19.13,73830.3,2.51,1.43,1.63,0,*4B
1531444061.98,2515,19.13,73838.0,2.53,1.47,1.59,0,*45
1531444063.2,2516,19.13,73836.8,2.53,1.55,1.67,0,*48
1531444064.42,2517,19.13,73838.8,2.53,1.47,1.71,0,*4D
1531444065.61,2518,19.13,73844.3,2.53,1.59,1.79,0,*45
1531444066.84,2519,19.13,73840.5,2.53,1.55,1.71,0,*40
1531444068.05,2520,19.13,73838.3,2.53,1.67,1.71,0,*4B
1531444069.27,2521,19.13,73838.3,2.53,1.59,1.67,0,*40
1531444070.48,2522,19.13,73836.8,2.53,1.59,1.67,0,*43
1531444071.7,2523,19.13,73840.0,2.53,1.67,1.67,0,*4F
1531444072.92,2524,19.06,73838.0,2.53,1.71,1.59,0,*42
1531444074.14,2525,19.13,73846.5,2.53,1.71,1.67,0,*4E
1531444075.36,2526,19.13,73848.3,2.53,1.71,1.55,0,*4C
1531444076.59,2527,19.06,73844.5,2.53,1.71,1.37,0,*49
1531444077.81,2528,19.06,73842.0,2.53,1.63,1.21,0,*42
1531444079.03,2529,19.06,73844.3,2.53,1.67,1.13,0,*46
1531444080.22,2530,19.06,73850.5,2.53,1.59,0.97,0,*7E
1531444081.44,2531,19.13,73850.3,2.53,1.59,0.87,0,*7E
1531444082.63,2532,19.13,73850.8,2.53,1.75,0.75,0,*7E
1531444083.85,2533,19.06,73842.0,2.57,1.59,0.51,0,*73
1531444085.06,2534,19.06,73838.0,2.57,1.59,0.29,0,*7B
1531444086.26,2535,19.06,73844.0,2.53,1.55,0.09,0,*40
1531444087.45,2536,19.13,73852.3,2.57,1.51,0.05,0,*4F
1531444088.64,2537,19.13,73854.5,2.57,1.59,-0.07,0,*69
1531444089.84,2538,19.06,73848.5,2.53,1.47,-0.03,0,*69
1531444091.04,2539,19.06,73846.3,2.53,1.51,-0.33,0,*5C
1531444092.24,2540,19.06,73848.0,2.57,1.29,-0.81,0,*50
1531444093.48,2541,19.06,73846.5,2.57,1.17,-1.43,0,*63
1531444094.7,2542,19.13,73846.8,2.57,0.79,-1.83,0,*55
1531444095.92,2543,19.06,73840.5,2.57,0.41,-1.91,0,*5C
1531444097.14,2544,19.13,73846.8,2.57,0.29,-1.91,0,*55
1531444098.35,2545,19.06,73842.5,2.57,0.13,-1.47,0,*56
1531444099.57,2546,19.06,73834.5,2.57,0.25,-1.05,0,*56
1531444100.76,2547,19.06,73832.8,2.57,0.33,-0.45,0,*65
1531444101.97,2548,19.13,73830.5,2.57,0.41,-0.23,0,*6F
1531444103.15,2549,19.13,73824.8,2.57,0.63,0.01,0,*73
1531444104.36,2550,19.13,73828.8,2.57,0.79,0.25,0,*46
1531444105.58,2551,19.13,73834.0,2.57,1.13,0.29,0,*76
1531444106.77,2552,19.06,73840.5,2.57,1.05,0.17,0,*7F
1531444107.94,2553,19.13,73844.5,2.57,1.05,0.01,0,*49
1531444109.11,2554,19.13,73848.3,2.57,1.01,-0.45,0,*57
1531444110.31,2555,19.13,73852.5,2.53,1.05,-0.93,0,*5D
1531444111.48,2556,19.13,73852.0,2.57,0.97,-1.59,0,*57
1531444112.69,2557,19.13,73852.8,2.57,0.87,-2.35,0,*5E
1531444113.93,2558,19.06,73848.0,2.59,0.55,-3.47,0,*54
1531444115.14,2559,19.06,73850.3,2.59,0.17,-4.65,0,*54
1531444116.37,2560,19.06,73850.5,2.59,-0.33,-5.89,0,*76
1531444117.61,2561,19.13,73850.8,2.59,-1.29,-6.93,0,*45
1531444118.84,2562,19.06,73846.3,2.57,-2.07,-7.35,0,*4A
1531444120.08,2563,19.06,73846.0,2.57,-2.47,-7.27,0,*4C
1531444121.26,2564,19.06,73842.8,2.57,-2.91,-6.85,0,*49
1531444122.47,2565,19.06,73846.8,2.59,-3.11,-6.31,0,*40